Retour au catalogue

COSMOS 2491 DEB

LostPO
NORAD 45033·DEBRIS·🇷🇺 Russia

Lancé Dec 25, 2013 depuis Plesetsk Cosmodrome

Loading…

Prochains Passages (prochaines 24 heures)

TLE

PériméSource: Space-Track

Époque: Nov 22, 2021, 05:24 UTC

1 45033U 13076W   21326.22537849  .00003297  00000-0  30070-1 0  9998
2 45033  82.4330 146.0252 0170588 348.9748  10.7600 12.20783741 83177

Suivez COSMOS 2491 DEB en temps réel avec AllMySat

Download on the App Store